FW7071 Weather Reports


Display with metric or nautical units.
time (UTC)temp
F
wind
direction
speed
MPH
gust
MPH
rain 1hr
in
rain 24hr
in
rain mn
in
humidity
%
barometer
mb
20260902080508 71 156 0.0 1.0 0.00 0.00 0.00 99 1019.2
20260902080003 71 108 2.0 3.0 0.00 0.00 0.00 99 1019.3
20260902075459 71 101 1.0 2.0 0.00 0.00 0.00 99 1019.3
20260902074954 71 106 0.0 1.0 0.00 0.00 0.00 99 1019.2
20260902074449 71 93 1.0 2.0 0.00 0.00 0.00 99 1019.5
20260902073950 71 164 0.0 0.0 0.00 0.00 0.00 99 1019.4
20260902073446 71 174 0.0 0.0 0.00 0.00 0.00 99 1019.3
20260902072942 71 148 0.0 0.0 0.00 0.00 0.00 99 1019.2
20260902072438 71 117 0.0 0.0 0.00 0.00 0.00 99 1019.1
20260902071934 70 96 0.0 0.0 0.00 0.00 0.00 99 1019.1
20260902071433 70 99 0.0 0.0 0.00 0.00 0.00 99 1019.1
20260902070930 70 118 0.0 1.0 0.00 0.00 0.00 99 1019.2
20260902070425 70 87 0.0 0.0 0.00 0.00 0.00 99 1019.2
20260902065924 70 85 0.0 0.0 0.00 0.00 0.00 99 1019.0
20260902065419 70 83 0.0 0.0 0.00 0.00 0.00 99 1019.0
20260902064914 70 90 1.0 1.0 0.00 0.00 0.00 99 1019.2
20260902064410 70 152 0.0 0.0 0.00 0.00 0.00 99 1019.3
20260902063906 70 86 0.0 1.0 0.00 0.00 0.00 99 1019.3
20260902063405 70 187 0.0 0.0 0.00 0.00 0.00 99 1019.3
20260902062901 70 138 0.0 1.0 0.00 0.00 0.00 99 1019.0
20260902062359 69 162 0.0 0.0 0.00 0.00 0.00 99 1018.9
20260902061859 70 167 0.0 0.0 0.00 0.00 0.00 99 1019.2
20260902061354 70 201 0.0 0.0 0.00 0.00 0.00 99 1019.2
20260902060851 70 123 0.0 0.0 0.00 0.00 0.00 99 1019.0
20260902060346 70 144 0.0 0.0 0.00 0.00 0.00 99 1019.2
20260902055842 69 186 0.0 0.0 0.00 0.00 0.00 99 1019.1
20260902055338 69 186 0.0 0.0 0.00 0.00 0.00 99 1019.1
20260902054833 70 186 0.0 0.0 0.00 0.00 0.00 99 1019.1
20260902054329 70 198 0.0 0.0 0.00 0.00 0.00 99 1019.1
20260902053823 70 199 0.0 0.0 0.00 0.00 0.00 99 1019.0
20260902053318 70 219 0.0 0.0 0.00 0.00 0.00 99 1019.3
20260902052818 70 194 0.0 0.0 0.00 0.00 0.00 99 1018.9
20260902052313 70 182 0.0 0.0 0.00 0.00 0.00 99 1018.9
20260902051808 70 182 0.0 0.0 0.00 0.00 0.00 99 1019.0
20260902051307 70 145 0.0 0.0 0.00 0.00 0.00 99 1018.8
20260902050802 70 157 0.0 0.0 0.00 0.00 0.00 99 1019.2
20260902050257 71 174 0.0 0.0 0.00 0.00 0.00 99 1019.2
20260902045757 71 171 0.0 0.0 0.00 0.00 0.00 99 1019.0
20260902045253 71 181 0.0 0.0 0.00 0.00 0.00 99 1019.5
20260902044749 71 181 0.0 0.0 0.00 0.00 0.00 99 1019.4
20260902044244 71 158 0.0 0.0 0.00 0.00 0.00 99 1019.6
20260902043739 71 169 0.0 0.0 0.00 0.00 0.00 99 1020.0
20260902043235 71 117 0.0 0.0 0.00 0.00 0.00 99 1019.6
20260902042733 71 117 0.0 0.0 0.00 0.00 0.00 99 1019.7
20260902042228 71 117 0.0 0.0 0.00 0.00 0.00 99 1019.5
20260902041724 71 140 0.0 0.0 0.00 0.00 0.00 99 1019.5
20260902041218 71 222 0.0 0.0 0.00 0.00 0.00 99 1019.4
20260902040718 71 174 0.0 0.0 0.00 0.00 0.00 99 1019.3
20260902040213 71 285 1.0 1.0 0.00 0.00 0.00 99 1019.3
20260902035712 71 169 0.0 0.0 0.00 0.13 0.13 99 1019.2
20260902035208 71 284 1.0 1.0 0.00 0.13 0.13 99 1019.0
20260902034707 71 241 0.0 0.0 0.00 0.13 0.13 99 1019.1
20260902034206 71 191 0.0 0.0 0.00 0.13 0.13 99 1018.6
20260902033705 71 188 0.0 0.0 0.00 0.13 0.13 99 1018.5
20260902033200 71 154 0.0 0.0 0.00 0.13 0.13 99 1018.4
20260902032658 71 141 0.0 0.0 0.00 0.13 0.13 99 1018.4
20260902032154 71 185 0.0 0.0 0.00 0.13 0.13 99 1018.3
20260902031648 71 220 0.0 0.0 0.00 0.13 0.13 99 1018.1
20260902031144 71 210 0.0 0.0 0.00 0.13 0.13 99 1018.2
20260902030639 71 150 0.0 0.0 0.00 0.13 0.13 99 1018.2
20260902030138 71 151 0.0 0.0 0.00 0.13 0.13 99 1018.2
20260902025638 71 69 1.0 1.0 0.00 0.13 0.13 99 1018.1
20260902025134 71 208 0.0 0.0 0.00 0.13 0.13 99 1018.0
20260902024629 71 89 1.0 2.0 0.00 0.13 0.13 99 1018.0
20260902024124 71 85 2.0 2.0 0.00 0.13 0.13 99 1018.0
20260902023620 71 154 0.0 0.0 0.00 0.13 0.13 99 1017.7
20260902023114 72 201 0.0 0.0 0.00 0.13 0.13 99 1018.0
20260902022614 71 227 1.0 1.0 0.00 0.13 0.13 99 1018.0
20260902022110 71 59 0.0 1.0 0.00 0.13 0.13 99 1017.7
20260902021605 71 93 2.0 2.0 0.00 0.13 0.13 99 1017.4
20260902021100 71 164 0.0 1.0 0.00 0.13 0.13 99 1017.8
20260902020556 71 160 0.0 0.0 0.00 0.13 0.13 99 1017.7
20260902020051 71 157 1.0 1.0 0.00 0.13 0.13 99 1017.4
20260902015547 72 217 0.0 0.0 0.00 0.13 0.13 99 1017.1
20260902015037 72 150 1.0 1.0 0.00 0.13 0.13 99 1017.1
20260902014533 72 144 0.0 0.0 0.00 0.13 0.13 99 1016.8
20260902014028 72 150 0.0 1.0 0.00 0.13 0.13 99 1016.8
20260902013527 72 147 0.0 0.0 0.00 0.13 0.13 99 1016.5
20260902013023 72 197 0.0 0.0 0.00 0.13 0.13 99 1016.7
20260902012519 72 276 1.0 2.0 0.00 0.13 0.13 99 1016.4
20260902012014 72 257 1.0 2.0 0.00 0.13 0.13 99 1015.7
20260902011509 72 235 2.0 2.0 0.00 0.13 0.13 99 1016.0
20260902011009 72 18 0.0 0.0 0.00 0.13 0.13 99 1016.2
20260902010503 72 37 0.0 1.0 0.00 0.13 0.13 99 1016.3
20260902010004 72 257 2.0 2.0 0.00 0.13 0.13 99 1016.2
20260902005502 72 217 0.0 0.0 0.00 0.13 0.13 99 1016.1
20260902004959 72 267 1.0 1.0 0.00 0.13 0.13 99 1016.1
20260902004458 72 207 0.0 0.0 0.00 0.13 0.13 99 1016.3
20260902003954 72 251 1.0 2.0 0.00 0.13 0.13 99 1016.8
20260902003448 72 278 2.0 2.0 0.00 0.13 0.13 99 1016.4
20260902002944 72 205 1.0 1.0 0.00 0.13 0.13 99 1016.3
20260902002439 72 199 0.0 1.0 0.00 0.13 0.13 99 1016.0
20260902001938 72 104 3.0 3.0 0.00 0.13 0.13 99 1015.8
20260902001433 73 214 4.0 5.0 0.00 0.13 0.13 99 1016.1
20260902000928 73 222 0.0 1.0 0.00 0.13 0.13 99 1016.1
20260902000423 73 157 2.0 3.0 0.05 0.13 0.13 99 1016.5
20260901235918 73 313 4.0 6.0 0.05 0.13 0.13 99 1017.2
20260901235413 74 277 4.0 6.0 0.42 0.12 0.12 98 1017.2
20260901234908 74 258 8.0 11.0 0.42 0.12 0.12 97 1016.7
20260901234402 78 325 4.0 5.0 0.07 0.05 0.05 97 1016.7
20260901233857 80 274 7.0 8.0 0.07 0.05 0.05 98 1016.9
20260901233352 81 216 1.0 2.0 0.05 0.04 0.04 98 1015.5
20260901232848 82 198 1.0 1.0 0.12 0.04 0.04 97 1015.3
20260901232343 82 191 0.0 0.0 0.12 0.03 0.03 94 1015.2
20260901231839 82 202 1.0 1.0 0.05 0.02 0.02 93 1015.4
20260901231335 83 158 0.0 0.0 0.00 0.01 0.01 92 1015.1
20260901230831 84 158 0.0 0.0 0.00 0.01 0.01 90 1015.0
20260901230330 84 159 0.0 0.0 0.00 0.01 0.01 88 1015.0
20260901225826 84 161 0.0 1.0 0.00 0.01 0.01 87 1014.8
20260901225325 84 203 1.0 1.0 0.00 0.01 0.01 87 1015.2
20260901224820 84 170 0.0 0.0 0.00 0.01 0.01 87 1014.9
20260901224317 84 185 0.0 0.0 0.00 0.01 0.01 88 1015.1
20260901223813 84 185 0.0 0.0 0.00 0.01 0.01 88 1015.0
20260901223308 84 168 0.0 0.0 0.00 0.01 0.01 87 1015.1
20260901222804 85 162 0.0 0.0 0.00 0.01 0.01 87 1015.6
20260901222300 86 161 0.0 0.0 0.00 0.01 0.01 86 1015.2
20260901221755 86 179 0.0 0.0 0.00 0.01 0.01 86 1015.3
20260901221250 86 178 0.0 0.0 0.00 0.01 0.01 85 1015.1
20260901220744 87 205 0.0 0.0 0.00 0.01 0.01 82 1015.2
20260901220244 88 216 0.0 1.0 0.00 0.01 0.01 81 1015.6
20260901215742 88 206 0.0 0.0 0.00 0.01 0.01 80 1015.0
20260901215237 89 203 0.0 1.0 0.00 0.01 0.01 78 1015.0
20260901214736 89 246 1.0 1.0 0.00 0.01 0.01 78 1015.1
20260901214229 89 282 1.0 1.0 0.00 0.01 0.01 78 1015.1
20260901213729 89 216 3.0 3.0 0.00 0.01 0.01 77 1015.2
20260901213229 89 248 2.0 3.0 0.00 0.01 0.01 76 1015.4
20260901212729 90 229 2.0 2.0 0.00 0.01 0.01 76 1015.6
20260901212225 89 233 2.0 3.0 0.00 0.01 0.01 77 1015.6
20260901211720 89 219 2.0 3.0 0.00 0.01 0.01 77 1015.3
20260901211216 89 244 3.0 3.0 0.00 0.01 0.01 76 1015.1
20260901210712 0 0.0 0.0 0.00 0.00 0.00 1015.0
20260901210207 0 0.0 0.0 0.00 0.00 0.00 1015.3
20260901205703 0 0.0 0.0 0.00 0.00 0.00 1015.4
20260901205158 0 0.0 0.0 0.00 0.00 0.00 1015.5
20260901204653 0 0.0 0.0 0.00 0.00 0.00 1015.3
20260901204148 0 0.0 0.0 0.00 0.00 0.00 1015.4
20260901203648 0 0.0 0.0 0.00 0.00 0.00 1015.5
20260901203144 0 0.0 0.0 0.00 0.00 0.00 1015.6
20260901202643 89 247 3.0 3.0 0.00 0.01 0.01 77 1015.6
20260901202139 89 247 3.0 3.0 0.00 0.01 0.01 77 1015.6
20260901201635 88 232 3.0 3.0 0.00 0.01 0.01 77 1015.5
20260901201133 89 250 3.0 3.0 0.00 0.01 0.01 78 1015.5
20260901200627 89 261 5.0 6.0 0.00 0.01 0.01 77 1015.7
20260901200122 88 255 2.0 3.0 0.00 0.01 0.01 78 1015.7
20260901195620 88 265 3.0 3.0 0.00 0.01 0.01 77 1015.9
20260901195114 88 234 4.0 6.0 0.00 0.01 0.01 78 1015.8
20260901194610 88 256 3.0 3.0 0.00 0.01 0.01 78 1016.1
20260901194105 88 228 2.0 3.0 0.00 0.01 0.01 78 1016.1
20260901193601 87 227 2.0 3.0 0.00 0.01 0.01 78 1016.0
20260901193055 87 277 4.0 5.0 0.00 0.01 0.01 79 1016.2
20260901192550 86 269 3.0 3.0 0.00 0.01 0.01 81 1016.2
20260901192046 86 245 2.0 2.0 0.00 0.01 0.01 82 1016.0
20260901191542 85 272 4.0 6.0 0.00 0.01 0.01 83 1016.3
20260901191038 85 236 3.0 5.0 0.00 0.01 0.01 82 1016.2
20260901190533 85 302 2.0 2.0 0.00 0.01 0.01 82 1016.2
20260901190032 85 296 3.0 3.0 0.00 0.01 0.01 83 1016.3
20260901185531 85 278 4.0 8.0 0.00 0.01 0.01 82 1016.3
20260901185030 85 286 4.0 5.0 0.00 0.01 0.01 81 1016.3
20260901184525 86 296 4.0 6.0 0.00 0.01 0.01 80 1016.4
20260901184021 86 271 3.0 3.0 0.00 0.01 0.01 80 1016.5
20260901183515 86 258 3.0 3.0 0.00 0.01 0.01 81 1016.4
20260901183011 86 225 3.0 3.0 0.00 0.01 0.01 81 1016.5
20260901182506 86 216 0.0 1.0 0.00 0.01 0.01 81 1016.7
20260901182001 86 223 0.0 0.0 0.00 0.01 0.01 83 1016.5
20260901181501 86 226 2.0 2.0 0.00 0.01 0.01 82 1016.5
20260901181000 85 242 0.0 1.0 0.00 0.01 0.01 82 1016.5
20260901180458 85 208 0.0 1.0 0.00 0.01 0.01 83 1016.7
20260901175956 84 241 1.0 2.0 0.00 0.01 0.01 83 1016.7
20260901175452 84 214 1.0 1.0 0.00 0.01 0.01 85 1016.9
20260901174947 84 216 1.0 2.0 0.00 0.01 0.01 84 1016.7
20260901174443 84 177 1.0 2.0 0.00 0.01 0.01 84 1016.8
20260901173939 84 218 2.0 3.0 0.00 0.01 0.01 84 1016.7
20260901173433 84 215 2.0 2.0 0.00 0.01 0.01 83 1016.5
20260901172930 84 177 1.0 2.0 0.00 0.01 0.01 84 1016.7
20260901172425 84 195 2.0 3.0 0.00 0.01 0.01 85 1016.5
20260901171923 84 160 0.0 0.0 0.00 0.01 0.01 86 1016.8
20260901171421 84 221 3.0 3.0 0.00 0.01 0.01 86 1016.7
20260901170920 84 217 1.0 1.0 0.00 0.01 0.01 86 1016.9
20260901170415 83 187 0.0 0.0 0.00 0.01 0.01 86 1016.9
20260901165910 82 190 0.0 0.0 0.00 0.01 0.01 87 1016.7
20260901165410 82 153 0.0 1.0 0.00 0.01 0.01 89 1017.2
20260901164906 82 219 3.0 3.0 0.00 0.01 0.01 89 1017.1
20260901164406 81 250 3.0 3.0 0.00 0.01 0.01 89 1017.3
20260901163901 81 200 0.0 1.0 0.00 0.01 0.01 90 1017.2
20260901163356 81 191 0.0 0.0 0.00 0.01 0.01 91 1017.5
20260901162851 81 231 2.0 5.0 0.00 0.01 0.01 91 1017.3
20260901162350 80 180 1.0 2.0 0.00 0.01 0.01 92 1017.4
20260901161850 80 175 1.0 1.0 0.00 0.01 0.01 94 1017.6
20260901161349 79 200 1.0 1.0 0.00 0.01 0.01 95 1017.7
20260901160844 78 197 0.0 0.0 0.00 0.01 0.01 96 1017.7
20260901160341 78 196 0.0 1.0 0.00 0.01 0.01 97 1017.8
20260901155840 78 188 0.0 1.0 0.00 0.01 0.01 97 1017.9
20260901155335 78 227 0.0 0.0 0.00 0.01 0.01 97 1017.7
20260901154832 78 249 2.0 2.0 0.00 0.01 0.01 96 1018.0
20260901154330 78 201 0.0 0.0 0.00 0.01 0.01 96 1017.8
20260901153825 78 210 0.0 1.0 0.00 0.01 0.01 96 1017.9
20260901153320 78 242 2.0 2.0 0.00 0.01 0.01 96 1017.8
20260901152819 78 265 1.0 1.0 0.00 0.01 0.01 97 1017.9
20260901152318 77 205 0.0 0.0 0.00 0.01 0.01 97 1017.9
20260901151813 77 199 0.0 0.0 0.00 0.01 0.01 97 1017.6
20260901151308 77 225 1.0 1.0 0.00 0.01 0.01 97 1017.8
20260901150807 77 231 1.0 2.0 0.00 0.01 0.01 97 1017.9
20260901150305 77 258 1.0 2.0 0.00 0.01 0.01 97 1018.2
20260901145803 77 232 0.0 0.0 0.00 0.01 0.01 97 1018.0
20260901145257 77 227 1.0 1.0 0.00 0.01 0.01 96 1018.0
20260901144753 77 221 0.0 0.0 0.00 0.01 0.01 97 1017.8
20260901144248 77 241 2.0 2.0 0.00 0.01 0.01 96 1017.8
20260901143738 77 313 3.0 3.0 0.00 0.01 0.01 96 1017.7
20260901143234 77 272 5.0 6.0 0.00 0.01 0.01 96 1017.7
20260901142731 77 231 3.0 3.0 0.00 0.01 0.01 96 1017.6
20260901142229 77 289 3.0 5.0 0.00 0.01 0.01 95 1017.9
20260901141725 77 239 2.0 3.0 0.00 0.01 0.01 95 1017.5
20260901141225 76 212 4.0 6.0 0.00 0.01 0.01 97 1017.7
20260901140724 76 222 5.0 6.0 0.00 0.01 0.01 97 1017.8
20260901140222 77 250 2.0 2.0 0.00 0.01 0.01 97 1017.5
20260901135717 76 244 5.0 6.0 0.00 0.01 0.01 97 1017.6
20260901135212 76 251 4.0 6.0 0.00 0.01 0.01 97 1017.7
20260901134708 76 289 5.0 6.0 0.00 0.01 0.01 97 1017.6
20260901134203 76 343 5.0 6.0 0.00 0.01 0.01 98 1017.9
20260901133702 75 254 4.0 6.0 0.00 0.01 0.01 99 1018.0
20260901133201 75 299 4.0 5.0 0.00 0.01 0.01 99 1017.9
20260901132700 74 233 3.0 3.0 0.00 0.01 0.01 99 1018.3
20260901132155 74 204 0.0 1.0 0.00 0.01 0.01 99 1018.0
20260901131649 74 82 0.0 1.0 0.00 0.01 0.01 99 1018.1
20260901131149 73 307 3.0 3.0 0.00 0.01 0.01 99 1018.0
20260901130644 73 264 1.0 1.0 0.00 0.01 0.01 99 1018.0
20260901130143 73 186 0.0 0.0 0.00 0.01 0.01 99 1017.8
20260901125641 72 232 0.0 1.0 0.00 0.01 0.01 99 1018.2
20260901125136 72 222 1.0 1.0 0.00 0.01 0.01 99 1018.2
20260901124631 72 291 2.0 2.0 0.00 0.01 0.01 99 1018.2
20260901124126 73 230 0.0 0.0 0.00 0.01 0.01 99 1018.5
20260901123625 73 221 0.0 0.0 0.00 0.01 0.01 99 1018.1
20260901123120 73 233 0.0 1.0 0.00 0.01 0.01 99 1018.1
20260901122618 73 218 0.0 0.0 0.00 0.01 0.01 99 1018.0
20260901122118 73 216 0.0 0.0 0.00 0.01 0.01 99 1018.2
20260901121613 72 212 0.0 1.0 0.00 0.01 0.01 99 1018.1
20260901121109 72 236 1.0 1.0 0.00 0.01 0.01 99 1018.1
20260901120603 72 205 0.0 0.0 0.00 0.01 0.01 99 1018.2
20260901120058 72 213 0.0 1.0 0.00 0.01 0.01 99 1017.9
20260901115553 72 304 0.0 0.0 0.00 0.01 0.01 99 1017.7
20260901115050 71 203 1.0 1.0 0.00 0.01 0.01 99 1017.6
20260901114546 71 215 0.0 1.0 0.00 0.01 0.01 99 1017.9
20260901114045 71 226 1.0 2.0 0.00 0.01 0.01 99 1017.8
20260901113543 71 198 0.0 0.0 0.00 0.01 0.01 99 1018.1
20260901113040 70 197 0.0 0.0 0.00 0.01 0.01 99 1018.0
20260901112539 70 205 0.0 0.0 0.00 0.01 0.01 99 1018.1
20260901112034 70 205 0.0 0.0 0.00 0.01 0.01 99 1018.1
20260901111533 70 205 0.0 0.0 0.00 0.01 0.01 99 1018.0
20260901111031 71 218 0.0 0.0 0.00 0.01 0.01 99 1018.1
20260901110527 71 230 0.0 0.0 0.00 0.01 0.01 99 1018.0
20260901110023 70 214 0.0 0.0 0.00 0.01 0.01 99 1018.1
20260901105520 70 214 0.0 0.0 0.00 0.01 0.01 99 1018.0
20260901105018 71 212 0.0 0.0 0.00 0.01 0.01 99 1018.1
20260901104515 70 214 0.0 0.0 0.00 0.01 0.01 99 1017.9
20260901104010 70 211 0.0 0.0 0.00 0.01 0.01 99 1017.9
20260901103504 70 210 0.0 0.0 0.00 0.01 0.01 99 1018.1
20260901103000 70 214 0.0 0.0 0.00 0.01 0.01 99 1018.1
20260901102454 70 218 0.0 0.0 0.00 0.01 0.01 99 1018.1
20260901101948 70 210 0.0 0.0 0.00 0.01 0.01 99 1018.1
20260901101444 70 210 0.0 0.0 0.00 0.01 0.01 99 1018.1
20260901100943 70 207 0.0 0.0 0.00 0.01 0.01 99 1018.1
20260901100438 70 207 0.0 0.0 0.00 0.01 0.01 99 1018.3
20260901095938 70 205 0.0 0.0 0.00 0.01 0.01 99 1018.1
20260901095437 70 201 0.0 0.0 0.00 0.01 0.01 99 1018.1
20260901094929 70 201 0.0 0.0 0.00 0.01 0.01 99 1018.0
20260901094430 70 201 0.0 0.0 0.00 0.01 0.01 99 1018.3
20260901093929 70 201 0.0 0.0 0.00 0.01 0.01 99 1018.2
20260901093424 70 201 0.0 0.0 0.00 0.01 0.01 99 1018.2
20260901092919 70 201 0.0 0.0 0.00 0.01 0.01 99 1018.3
20260901092415 70 201 0.0 0.0 0.00 0.01 0.01 99 1018.1
20260901091910 70 201 0.0 0.0 0.00 0.01 0.01 99 1018.1
20260901091409 70 201 0.0 0.0 0.00 0.01 0.01 99 1018.3
20260901090900 70 201 0.0 0.0 0.00 0.01 0.01 99 1018.1
20260901090359 70 201 0.0 0.0 0.00 0.01 0.01 99 1018.0
20260901085856 70 201 0.0 0.0 0.00 0.01 0.01 99 1018.0
20260901085351 71 201 0.0 0.0 0.00 0.01 0.01 99 1018.1
20260901084848 70 201 0.0 0.0 0.00 0.01 0.01 99 1018.2
20260901084343 70 201 0.0 0.0 0.00 0.01 0.01 99 1018.2
20260901083833 70 201 0.0 0.0 0.00 0.01 0.01 99 1018.3
20260901083332 70 201 0.0 0.0 0.00 0.01 0.01 99 1018.3
20260901082831 70 199 0.0 0.0 0.00 0.01 0.01 99 1018.3
20260901082326 70 199 0.0 0.0 0.00 0.01 0.01 99 1018.4
20260901081821 70 200 0.0 0.0 0.00 0.01 0.01 99 1018.3
20260901081316 70 196 0.0 0.0 0.00 0.01 0.01 99 1018.1